Temperature
15 15 15 15 15 15 15 15 15 15 15 15 15 15 15 15 15 15 15 15 15 15 15 15 15 15 15 15 15 15 14 14 14 14 14 14 14 14 14 14 14 14 14
15 15 15 15 15 15 15 15 15 15 15 15 15 15 15 15 15 15 15 15 15 15 15 15 15 15 15 15 15 14 14 14 14 14 14 14 14 13 13 13 13 13 13
15 15 14 14 14 15 15 15 15 15 15 15 15 15 15 15 15 15 15 15 15 15 14 14 14 14 14 14 14 14 14 14 14 14 14 14 13 13 13 13 13 13 13
14 14 14 14 14 14 14 14 14 14 15 15 15 15 15 15 15 15 15 15 15 14 14 14 14 14 14 14 14 14 14 14 14 14 14 14 13 13 13 13 13 13 13
14 14 14 14 14 14 14 14 14 14 14 14 15 14 15 15 14 14 14 14 14 14 14 14 14 14 14 14 14 14 14 13 13 13 13 13 13 13 13 13 13 13 12
14 14 14 14 14 14 14 14 14 14 14 14 14 14 14 14 14 14 14 14 14 14 14 14 14 14 14 14 14 13 13 13 13 13 13 13 13 13 12 12 12 12 12
13 13 14 14 14 14 14 14 14 14 14 14 14 14 14 14 14 14 14 14 14 14 14 14 14 14 13 13 13 13 13 13 13 13 13 13 13 13 12 12 12 12 12
13 13 13 13 13 13 13 14 14 14 14 14 14 14 14 14 14 14 14 13 13 13 13 13 13 13 13 13 13 13 13 13 13 13 13 13 12 12 12 12 12 12 12
12 12 13 13 13 13 13 13 13 14 14 14 13 14 14 14 14 13 13 13 13 13 13 13 13 13 13 13 13 13 12 12 12 12 12 12 12 12 12 12 12 12 11
12 12 12 12 12 12 13 13 13 13 13 13 13 13 13 13 13 13 13 13 13 13 13 13 13 13 13 12 12 12 12 12 12 12 12 12 12 12 11 11 11 11 11
12 12 12 12 12 12 12 12 13 13 13 13 13 13 13 13 13 13 13 13 13 13 13 13 13 12 12 12 12 12 12 12 12 12 12 11 11 11 11 11 11 11 10
11 11 11 12 12 12 12 12 12 12 12 12 12 12 12 13 13 13 12 12 12 12 12 12 12 12 12 12 12 12 12 12 12 12 11 11 11 11 11 11 10 10 10
11 11 11 11 11 11 11 11 12 12 12 12 12 12 12 12 12 12 12 12 12 12 12 12 12 12 12 12 12 11 11 11 11 11 11 11 11 10 10 10 10 10 10
10 10 10 11 11 11 11 11 11 11 11 11 11 12 12 12 12 12 12 12 12 12 11 11 11 11 11 11 11 11 11 11 11 11 11 11 10 10 10 10 10 10 9
10 10 10 10 10 10 10 11 11 11 11 11 11 11 11 11 11 11 11 11 11 11 11 11 11 11 11 11 11 11 11 11 10 10 10 10 10 10 10 9 9 9 9
9 9 10 10 10 10 10 10 10 10 10 10 10 10 10 10 11 11 11 11 11 11 11 11 11 11 11 10 10 10 10 10 10 10 10 10 10 10 9 9 9 9 9
9 9 9 9 9 9 10 10 10 10 10 10 10 10 10 10 10 10 10 10 10 10 10 10 10 10 10 10 10 10 10 10 10 10 9 9 9 9 9 9 9 9 9
8 9 9 9 9 9 9 9 9 9 9 9 9 9 9 9 10 10 10 10 10 10 10 10 10 10 10 9 9 9 9 9 9 9 9 9 9 9 9 8 8 8 8
8 8 8 8 8 8 8 8 8 9 9 9 9 9 9 9 9 9 9 9 9 9 9 9 9 9 9 9 9 9 9 9 9 9 9 8 8 8 8 8 8 8 8
7 8 8 8 8 8 8 8 8 8 8 8 8 9 9 9 9 9 9 9 9 9 9 9 8 8 8 8 8 8 8 8 8 8 8 8 8 8 7 7 7 7 7
7 7 7 7 7 7 7 8 8 8 8 8 8 8 8 8 8 8 8 8 8 8 8 8 8 8 8 7 7 7 7 7 7 7 7 7 7 7 7 7 7 7 7
6 7 7 7 7 7 7 7 7 7 7 7 8 8 8 8 8 8 7 7 8 8 8 7 7 7 7 7 7 6 6 6 6 7 7 7 7 7 7 6 6 6 6
6 6 6 6 6 6 6 6 6 7 7 7 7 7 7 7 7 7 7 7 7 7 7 7 7 7 7 7 6 6 6 5 5 6 6 6 6 6 6 6 6 6 6
6 6 6 6 6 6 6 6 6 6 6 6 6 6 6 6 6 7 7 7 7 7 7 7 7 6 6 6 6 6 6 5 5 5 5 5 6 6 6 5 5 5 5
5 5 5 5 5 5 6 6 6 6 6 6 5 6 6 6 6 6 6 6 6 6 6 6 6 6 6 6 6 5 5 5 5 5 4 5 5 5 5 5 5 5 5
5 5 5 5 5 5 5 5 5 5 5 5 5 5 5 5 5 5 5 6 6 6 6 6 6 6 6 5 5 5 5 5 5 5 5 4 4 5 5 5 5 5 4
Wind_Speed
2 3 2 3 4 6 7 7 8 8 8 8 8 8 9 9 9 8 8 8 9 9 8 9 9 9 9 9 9 9 9 9 9 9 9 9 9 9 9 9 8 8 9
1 1 2 4 5 6 7 7 8 7 7 7 7 8 8 9 9 8 7 8 8 8 8 8 8 8 8 8 8 9 9 9 9 9 9 9 9 9 8 8 8 7 8
1 1 3 4 5 6 7 7 7 7 7 7 7 7 8 8 8 8 8 8 8 8 8 8 8 8 8 8 8 8 8 8 8 8 8 7 7 7 7 7 7 8 8
2 3 2 4 6 6 7 7 7 6 6 6 6 7 7 7 7 7 7 7 7 7 7 7 7 7 7 7 7 8 7 7 7 7 6 6 5 6 6 6 6 6 7
4 4 4 5 6 6 6 6 6 6 6 6 5 6 6 7 6 6 7 7 6 6 6 7 7 7 7 7 7 7 7 7 6 7 6 5 4 5 5 5 5 5 5
5 5 5 6 6 5 5 5 6 5 5 5 5 5 5 5 5 6 6 6 6 5 6 6 6 6 5 6 6 6 6 6 6 6 5 4 3 3 4 4 4 4 4
4 5 5 5 5 5 5 5 5 5 5 5 5 5 5 4 4 4 5 5 5 5 5 5 5 5 5 5 5 5 5 5 5 5 4 2 2 3 3 3 3 3 3
4 5 6 5 5 5 5 4 4 4 4 4 4 4 4 4 5 5 5 5 4 4 4 5 5 5 4 4 4 4 4 4 4 3 2 1 1 2 2 2 1 1 1
5 5 6 5 5 5 4 4 4 4 4 4 3 3 3 4 3 4 4 4 4 4 4 4 4 4 4 3 3 3 3 3 4 2 1 1 2 2 2 1 1 1 1
5 5 5 5 5 4 4 4 4 3 4 4 4 3 3 3 3 2 3 3 3 3 3 3 3 3 3 2 2 2 3 3 3 2 1 2 3 3 3 2 2 2 2
5 5 5 5 4 4 3 3 4 3 3 3 2 3 3 2 1 1 1 2 2 3 2 3 3 2 2 2 3 3 3 2 2 1 2 3 4 4 4 4 4 4 3
2 3 4 4 4 3 3 3 3 2 3 3 2 2 2 2 1 2 2 2 2 2 2 3 2 2 2 1 2 2 1 1 1 2 3 4 5 5 5 5 5 5 5
1 2 2 3 4 3 2 2 2 2 2 2 3 2 2 2 2 2 2 2 1 1 1 2 1 1 2 1 1 0 0 1 2 3 4 6 6 6 7 7 7 6 6
1 2 2 2 3 3 2 1 2 2 2 2 2 2 2 1 1 1 1 1 1 0 0 0 0 1 1 1 1 1 1 2 3 3 5 6 7 7 8 8 8 7 7
1 3 2 2 2 2 2 1 1 1 1 1 1 1 1 0 0 0 0 0 0 0 1 1 1 1 1 1 1 1 2 3 4 4 5 7 7 8 9 9 9 8 8
2 2 2 1 1 2 1 1 1 1 1 1 1 1 1 1 1 1 1 1 1 1 2 2 2 2 2 2 2 2 2 3 4 5 5 6 7 8 9 9 9 9 8
2 2 2 2 1 1 1 2 2 2 1 1 2 2 2 2 1 1 1 2 2 2 1 1 2 2 2 1 2 2 2 3 4 4 5 5 6 7 8 9 8 9 8
2 2 3 2 1 1 1 2 2 2 2 2 3 3 3 3 2 1 1 2 3 2 1 2 2 2 2 2 2 2 2 2 3 4 4 4 4 4 6 7 8 8 8
2 2 2 2 1 2 2 2 2 2 2 2 3 3 3 3 3 2 2 2 2 2 2 2 2 2 2 2 2 2 2 2 3 3 3 3 4 4 4 6 6 7 8
1 1 2 2 2 1 1 1 2 2 2 2 2 3 3 3 3 3 2 3 2 1 2 2 2 3 2 2 2 2 2 3 3 3 3 2 2 3 4 4 4 5 6
1 2 2 3 3 1 1 1 1 2 2 2 2 3 3 4 3 3 2 3 2 3 3 3 2 2 2 1 0 2 2 2 3 2 1 1 2 3 3 3 3 3 4
2 3 3 3 3 2 1 1 2 2 2 2 3 3 3 3 3 3 3 3 3 3 3 3 2 2 2 2 1 1 1 2 1 2 2 2 3 2 2 2 3 3 3
3 4 4 4 4 3 2 1 1 1 2 2 2 3 3 3 3 3 3 3 3 3 4 4 4 4 3 3 2 2 2 3 3 2 3 3 3 2 2 2 3 4 4
4 3 3 4 4 3 2 2 2 2 3 3 3 3 3 3 3 3 3 3 4 4 4 4 4 4 4 4 2 2 2 2 2 3 3 2 3 4 3 3 3 4 5
3 3 3 4 4 3 2 3 3 3 3 3 3 3 4 3 3 3 4 3 4 4 4 4 4 4 4 4 3 2 2 2 2 3 5 4 3 3 3 3 3 3 4
3 3 3 3 4 3 3 3 3 4 4 4 4 4 4 3 3 3 4 3 4 4 4 4 5 5 5 5 4 3 3 2 2 3 4 5 5 4 3 3 3 3 4
Wind_Direction
261 283 197 125 118 115 113 109 105 105 104 104 108 108 109 108 110 113 110 111 110 110 110 109 106 105 103 98 95 94 92 90 86 85 84 85 86 87 88 85 85 86 89
212 233 154 132 127 122 116 114 109 107 108 109 113 112 110 107 104 110 108 111 110 109 108 109 107 107 105 103 102 99 96 92 88 87 83 82 85 89 90 88 86 92 92
70 97 130 128 128 123 119 113 111 109 107 109 114 115 115 112 108 111 112 111 109 106 105 107 108 109 108 107 108 103 97 95 94 89 80 74 82 92 90 91 88 86 87
69 80 105 116 120 121 119 118 111 112 113 109 113 118 118 115 113 115 117 113 111 110 108 107 106 106 109 111 110 107 100 99 95 87 75 69 78 97 96 95 94 89 83
55 54 67 95 112 116 122 121 116 115 113 114 110 113 117 117 117 118 122 119 119 116 116 114 110 110 109 108 112 111 107 103 96 87 76 70 75 99 104 101 96 94 88
52 48 59 81 94 99 112 121 122 119 112 105 105 105 117 119 123 123 123 122 124 126 125 121 116 114 115 111 108 108 105 104 97 89 84 74 74 96 106 101 99 99 90
53 46 52 71 88 87 92 101 112 118 114 108 101 98 106 112 113 116 117 123 125 131 136 131 124 122 122 118 111 106 107 102 96 95 88 76 86 103 111 107 96 97 90
63 48 48 62 75 82 83 93 100 112 119 110 105 99 94 101 109 113 115 120 123 127 130 132 132 133 133 128 116 113 101 106 102 99 96 92 141 130 126 129 135 124 100
57 52 46 53 60 70 74 76 83 99 108 109 105 100 96 90 111 122 122 128 131 131 128 130 133 142 143 142 126 120 118 108 109 103 114 182 208 213 195 191 210 214 221
41 41 37 40 48 56 65 67 61 74 91 100 97 89 86 87 88 123 122 129 138 140 140 141 137 137 145 147 137 135 123 111 117 129 160 220 222 225 223 219 225 233 231
26 22 23 28 32 39 59 59 58 55 60 73 89 86 82 70 74 103 112 121 138 149 152 154 152 144 124 129 124 125 125 119 135 165 209 225 230 234 236 239 239 240 242
1 356 10 10 16 31 43 46 57 58 52 49 50 75 80 62 61 86 102 109 134 156 166 172 168 139 103 103 123 105 102 162 184 219 227 235 244 251 249 248 245 242 245
277 334 346 358 8 20 30 42 49 53 51 42 37 42 55 69 57 65 67 68 75 154 161 189 153 108 104 99 88 99 198 212 236 245 244 241 246 254 258 257 253 248 246
305 304 326 349 12 7 13 30 42 38 34 24 18 38 51 43 45 52 71 49 33 234 176 142 98 106 124 156 173 212 240 245 246 252 256 257 255 253 256 257 257 256 254
297 299 312 337 360 5 5 358 13 5 357 342 13 23 44 54 234 219 168 158 314 255 206 196 169 170 177 197 218 218 236 248 250 252 255 262 265 263 259 256 256 256 256
270 303 299 320 345 6 358 322 305 317 320 331 332 325 293 270 255 232 216 217 241 241 231 224 208 195 198 205 219 233 240 246 248 253 256 260 263 262 261 261 259 258 258
252 291 306 290 348 353 333 323 317 302 290 284 297 293 284 274 259 253 247 230 238 245 238 235 212 189 191 210 238 243 248 250 248 248 252 251 256 262 262 261 264 262 259
243 277 302 304 323 315 302 303 308 300 283 283 297 298 288 282 269 261 242 247 254 235 220 204 208 211 218 225 246 252 256 264 261 255 247 242 241 251 259 264 264 265 269
246 259 290 298 272 275 280 286 284 298 292 291 297 293 289 285 276 265 256 259 261 232 209 220 224 218 229 236 247 256 257 263 266 262 254 244 235 239 243 258 264 267 269
270 267 271 294 274 274 279 298 301 306 303 306 294 291 286 280 273 266 261 263 248 224 224 214 235 226 223 223 264 287 277 269 259 247 248 243 243 245 236 240 248 261 266
308 296 277 280 274 266 284 274 270 277 282 284 278 283 287 284 272 250 262 256 237 224 236 231 235 227 217 180 22 321 310 274 256 249 249 254 256 248 232 233 230 235 250
267 279 276 276 269 248 239 228 226 245 253 260 275 289 285 282 278 258 243 241 236 231 239 236 231 223 224 192 173 336 303 300 284 265 259 252 255 249 250 245 230 233 240
266 266 271 276 269 259 249 239 293 318 307 298 292 278 282 282 276 262 246 244 239 230 236 236 224 217 223 222 204 187 206 243 302 267 255 250 251 260 256 230 237 240 241
260 265 272 275 267 261 245 227 224 242 261 267 270 273 282 283 275 271 259 244 238 234 239 242 235 236 219 220 236 238 233 222 245 282 281 260 258 256 249 255 249 246 244
266 274 275 273 270 261 242 225 226 250 260 278 281 286 284 275 271 272 265 251 245 246 242 239 246 240 231 224 220 235 267 280 252 251 275 281 279 263 251 245 247 247 248
294 296 288 278 283 276 251 235 228 238 254 269 277 276 278 276 269 262 265 252 248 250 248 242 239 240 235 228 226 221 229 232 244 248 262 278 281 281 272 258 252 249 242
Height
1504 1505 1506 1507 1509 1510 1511 1512 1512 1513 1513 1514 1515 1515 1516 1516 1517 1518 1519 1519 1520 1520 1521 1521 1521 1522 1522 1522 1522 1523 1523 1523 1524 1524 1524 1525 1525 1526 1526 1526 1527 1527 1528
1503 1505 1506 1507 1508 1509 1510 1511 1512 1513 1513 1514 1514 1515 1516 1516 1517 1518 1519 1519 1520 1520 1521 1521 1521 1522 1522 1522 1522 1523 1523 1523 1524 1524 1524 1525 1525 1526 1526 1527 1527 1528 1528
1503 1504 1505 1507 1508 1509 1510 1511 1512 1512 1513 1514 1514 1515 1515 1516 1517 1518 1518 1519 1519 1520 1520 1521 1521 1521 1522 1522 1522 1523 1523 1523 1523 1524 1524 1524 1525 1526 1526 1527 1527 1528 1528
1503 1504 1505 1506 1507 1508 1509 1510 1511 1512 1512 1513 1514 1514 1515 1516 1516 1517 1518 1518 1519 1519 1520 1520 1521 1521 1522 1522 1522 1522 1523 1523 1523 1524 1524 1524 1525 1526 1526 1527 1527 1528 1528
1503 1504 1505 1506 1507 1508 1509 1509 1510 1511 1512 1513 1513 1514 1514 1515 1516 1516 1517 1517 1518 1519 1519 1520 1520 1520 1521 1521 1522 1522 1522 1523 1523 1523 1523 1524 1525 1525 1526 1526 1527 1527 1527
1503 1503 1504 1505 1506 1507 1508 1509 1509 1510 1511 1512 1513 1513 1514 1514 1514 1515 1516 1517 1517 1518 1519 1519 1519 1520 1520 1521 1521 1521 1522 1522 1522 1522 1523 1523 1524 1525 1525 1525 1526 1526 1526
1502 1503 1504 1504 1505 1506 1507 1507 1508 1509 1510 1511 1511 1512 1513 1513 1513 1514 1514 1515 1516 1517 1517 1518 1518 1519 1519 1520 1520 1521 1521 1521 1522 1522 1522 1523 1523 1524 1524 1524 1525 1525 1525
1502 1502 1503 1504 1504 1505 1506 1506 1507 1508 1508 1509 1510 1510 1511 1512 1512 1513 1513 1514 1514 1515 1516 1517 1517 1518 1518 1519 1519 1520 1520 1521 1521 1521 1522 1522 1522 1523 1523 1523 1524 1524 1524
1501 1502 1502 1503 1504 1504 1505 1505 1506 1506 1507 1507 1508 1509 1509 1510 1511 1511 1512 1513 1513 1514 1515 1515 1516 1516 1517 1517 1518 1518 1519 1519 1520 1520 1521 1521 1521 1521 1521 1522 1522 1522 1522
1500 1501 1501 1502 1502 1503 1503 1504 1504 1505 1505 1506 1506 1507 1508 1508 1509 1510 1510 1511 1512 1512 1513 1514 1514 1515 1515 1516 1516 1517 1517 1518 1518 1519 1519 1519 1520 1520 1520 1520 1520 1520 1520
1499 1499 1500 1501 1501 1501 1502 1502 1503 1503 1504 1504 1504 1505 1506 1506 1507 1508 1508 1509 1510 1511 1511 1512 1513 1513 1514 1514 1514 1515 1515 1516 1516 1517 1517 1517 1518 1518 1518 1518 1518 1518 1518
1497 1498 1498 1499 1499 1500 1500 1501 1501 1501 1501 1502 1502 1503 1503 1504 1505 1506 1506 1507 1508 1508 1509 1510 1510 1511 1511 1512 1512 1513 1513 1514 1514 1514 1515 1515 1516 1516 1516 1516 1516 1516 1516
1496 1496 1497 1497 1497 1498 1498 1499 1499 1499 1499 1500 1500 1500 1501 1502 1503 1503 1504 1505 1505 1506 1507 1507 1508 1508 1509 1509 1510 1510 1511 1511 1511 1512 1512 1513 1513 1513 1513 1513 1513 1513 1513
1494 1494 1495 1495 1495 1495 1496 1496 1496 1496 1497 1497 1498 1498 1498 1499 1500 1500 1501 1502 1502 1503 1504 1504 1505 1505 1506 1507 1507 1508 1508 1508 1509 1509 1509 1510 1510 1510 1510 1510 1510 1510 1510
1492 1492 1493 1493 1493 1493 1494 1494 1494 1494 1495 1495 1495 1495 1496 1496 1497 1497 1498 1499 1499 1500 1501 1501 1502 1502 1503 1504 1504 1504 1505 1506 1506 1506 1506 1507 1507 1507 1507 1507 1507 1507 1507
1490 1490 1491 1491 1491 1491 1491 1492 1491 1492 1492 1493 1493 1493 1493 1493 1494 1495 1495 1496 1496 1497 1498 1498 1499 1499 1500 1500 1500 1501 1502 1502 1502 1503 1503 1503 1503 1503 1503 1503 1503 1503 1503
1487 1488 1488 1488 1488 1488 1489 1489 1489 1490 1489 1490 1490 1490 1491 1491 1491 1491 1492 1492 1493 1493 1494 1495 1496 1496 1496 1496 1497 1497 1498 1498 1498 1499 1499 1499 1499 1499 1499 1499 1499 1499 1499
1484 1485 1485 1485 1485 1486 1486 1486 1486 1487 1487 1487 1487 1488 1488 1488 1488 1488 1489 1489 1489 1490 1491 1491 1492 1492 1492 1492 1493 1493 1494 1494 1494 1495 1495 1495 1495 1495 1495 1495 1495 1495 1495
1481 1482 1482 1482 1483 1483 1483 1483 1483 1483 1484 1484 1484 1484 1485 1485 1485 1485 1485 1486 1486 1486 1487 1487 1488 1488 1488 1488 1489 1489 1489 1490 1490 1491 1491 1491 1491 1491 1491 1491 1491 1490 1490
1479 1479 1479 1479 1480 1480 1480 1480 1480 1480 1480 1480 1481 1481 1481 1482 1482 1482 1482 1482 1482 1483 1483 1483 1484 1484 1485 1485 1485 1485 1485 1486 1486 1486 1487 1487 1486 1486 1486 1486 1486 1486 1486
1476 1476 1476 1476 1476 1476 1476 1476 1476 1475 1476 1476 1477 1477 1478 1478 1478 1478 1478 1478 1478 1479 1479 1480 1480 1480 1480 1481 1481 1480 1480 1481 1481 1481 1482 1482 1482 1482 1482 1482 1481 1481 1480
1473 1473 1473 1473 1473 1473 1473 1473 1473 1472 1472 1472 1473 1474 1474 1474 1474 1474 1474 1474 1474 1475 1475 1476 1476 1476 1476 1477 1477 1477 1476 1477 1476 1477 1477 1477 1477 1478 1478 1477 1477 1476 1476
1469 1470 1470 1470 1470 1469 1469 1469 1469 1468 1468 1468 1469 1469 1470 1470 1470 1470 1470 1470 1470 1471 1471 1471 1472 1472 1472 1473 1474 1475 1474 1472 1471 1471 1471 1472 1472 1472 1472 1472 1472 1472 1471
1466 1467 1467 1467 1466 1466 1466 1465 1465 1464 1463 1464 1465 1465 1465 1465 1466 1466 1466 1466 1466 1466 1467 1467 1468 1468 1468 1468 1469 1470 1471 1470 1469 1466 1466 1467 1467 1467 1467 1467 1467 1466 1466
1463 1463 1463 1463 1462 1462 1461 1461 1461 1460 1460 1461 1461 1460 1460 1461 1461 1461 1461 1462 1462 1462 1462 1463 1463 1463 1463 1463 1463 1464 1464 1465 1464 1463 1460 1460 1461 1461 1461 1461 1461 1461 1460
1459 1459 1460 1459 1458 1458 1457 1457 1457 1456 1456 1456 1456 1455 1455 1455 1456 1456 1456 1457 1457 1457 1458 1458 1458 1458 1458 1458 1458 1459 1459 1459 1459 1459 1457 1455 1455 1455 1456 1456 1456 1455 1455